ARIANE 2 DEB, 33578

Orbit data source: Space-Track

ARIANE 2 DEB, 33578 is space debris in HEO originally from a launch on Fri, 27 Jan 1989 UTC launched from the French Guiana (FRGUI). Debris objects in space refer to the collection of defunct objects orbiting the Earth. Examples of debris include non-operational satellites, rocket bodies, and fragments generated from explosions, collisions, or faulty payload assembly.

Loading next visibility...
Identifier
33578, 1989-006BW
Orbit
HEO
Country
Flag of FRFR
Related business
Manufacturer
EADS/LV
Mission
Spacecraft
Bus & Motor
Unknown
Mass
Unknown
Launch date (UTC)
1989-01-27 (37 years ago)
Launch vehicle
Unknown
Launch site
French Guiana (FRGUI)
Object type
Payload
Rocket body
Debris
Shape & HBR
Unknown shape, 0.2 m
Radar Cross Section
Medium (>0.1 m² and <1 m²)

Expand to show TLE details & history
Last TLE update: 2 days ago

TLE from 2 days ago
0 ARIANE 2 DEB
1 33578U 89006BW  26102.99524821 -.00000192  00000-0 -10609-3 0  9993
2 33578   8.2732  47.0774 7146041 134.1143 313.3427  2.31121089163649
Epoch: 2026-04-12T23:53Z
TLE epoch observation values (Epoch: 2026-04-12T23:53:09.445Z)
Latitude
Longitude
-152.31549°
Altitude
17,095.614 km
Speed
4.179 km/s
True Right ascension
03h 08m 39s
True Declination
0° 00' 00"
Sunlit
Object was in daylight at epoch
Visualization orbit readout
Latitude
Unknown
Longitude
Unknown
Altitude
Unknown
Speed
Unknown
Apparent Right ascension
Unknown
Apparent Declination
Unknown
Sunlit
N/A
Visualization observer readout
Local Sidereal Time
09:20:09
Azimuth
Unknown
Elevation
Unknown
Doppler factor
Unknown
Orbital elements
Apogee altitude
35,063.062 km
Perigee altitude
519.752 km
Semi-major axis
24,169.544 km
Eccentricity
0.7146
Inclination
8.2732°
RAAN
47.0774°
Arg. of periapsis
134.1143°
True anomaly
226.11964°
Mean anomaly
313.3427°
Eccentric anomaly
272.4359°
Mean motion
0.57762 °/min
Orbital period
623.25 mins
BSTAR
-0.00010609
Loading maneuver chart data...
Computing Atmospheric mass density...
Loading historical data...
Loading historical data...
Loading historical data...
Loading historical data...
Loading historical data...
Loading historical data...
Loading historical data...

Documentation

Showing up to 5 results
|